Regional Weather Roundup
Issued by NWS

Home | Current Version | Previous Version | Graphics & Text | Print | Product List | Glossary On
Versions: 1 2 3 4 5 6 7 8 9 10 11 12 13 14 15 16 17 18 19 20 21 22 23 24 25 26 27
000
ASUS43 KDMX 220907
RWRIA

WEATHER ROUNDUP FOR IOWA
NATIONAL WEATHER SERVICE DES MOINES IA
400 AM CDT TUE APR 22 2014

NOTE: "FAIR" INDICATES FEW OR NO CLOUDS BELOW 12,000 FEET WITH NO
SIGNIFICANT WEATHER AND/OR OBSTRUCTIONS TO VISIBILITY.

* - THESE STATIONS ARE NOT NWS STATIONS...THUS NOT UNDER NWS
QUALITY CONTROL.  THEY ALSO DO NOT REPORT WEATHER SUCH
AS PRECIPITATION OR FOG.

IAZ001>003-012>014-020>022-031>034-043>046-221000-
   NORTHWEST IOWA

CITY           SKY/WX    TMP DP  RH WIND       PRES   REMARKS
CARROLL *      CLEAR     39  30  70 N8        30.14S WCI  34
CHEROKEE *     CLEAR     34  23  64 CALM      30.16S
DENISON *      CLEAR     41  32  70 W5        30.14S
LE MARS *      CLEAR     32  28  86 CALM      30.17S
ORANGE CITY *  CLEAR     43  28  56 CALM      30.15F
SHELDON *      CLEAR     32  25  74 CALM      30.15S
SIOUX CITY     CLEAR     39  29  67 CALM      30.17S
SPENCER        CLEAR     31  26  82 W8        30.14S WCI  23
STORM LAKE *   CLEAR     39  28  65 N8        30.15S WCI  34
$$

IAZ055>058-069>071-079>083-090>094-221000-
   SOUTHWEST IOWA

CITY           SKY/WX    TMP DP  RH WIND       PRES   REMARKS
ATLANTIC *     CLEAR     41  34  75 N8        30.13S
AUDUBON *      CLEAR     43  28  56 N6        30.14S
CLARINDA *     CLEAR     45  34  65 N7        30.15R
COUNCIL BLFS * CLEAR     43  34  70 N7        30.15R
CRESTON *      CLEAR     43  32  65 N10       30.12S
HARLAN  *      CLEAR     41  32  70 N8        30.18S
LAMONI         CLEAR     46  33  60 N13       30.09S
RED OAK *      CLEAR     41  36  81 N6        30.15R
SHENANDOAH *   CLEAR     43  36  75 N7        30.15S
$$

IAZ047>049-059>061-072>074-084-221000-
   CENTRAL IOWA

CITY           SKY/WX    TMP DP  RH WIND       PRES   REMARKS
AMES           CLEAR     43  32  65 N12       30.11S
ANKENY *       CLEAR     45  32  61 N10       30.11S
CHARITON *     CLEAR     46  32  57 N10G17    30.10R
DES MOINES     CLEAR     48  31  51 N13G21    30.11R
GRINNELL*      CLEAR     43  32  65 N18       30.07S
KNOXVILLE *    CLEAR     46  32  57 N16G24    30.08R
MARSHALLTOWN   CLEAR     41  33  73 N13       30.08R
NEWTON *       CLEAR     43  32  65 N15       30.09R
PELLA *        CLEAR     45  34  65 N13G20    30.09R
PERRY *          N/A     45  30  57 N10       30.13S
$$

IAZ004>006-015-016-023>025-035-036-221000-
   NORTH CENTRAL IOWA

CITY           SKY/WX    TMP DP  RH WIND       PRES   REMARKS
ALGONA *       CLEAR     37  32  81 NW9       30.13S WCI  31
CLARION *      CLEAR     39  32  75 N10       30.11S WCI  32
ESTHERVILLE    CLEAR     35  29  78 NW7       30.12F WCI  29
FORT DODGE *   CLEAR     41  30  65 N6        30.14R
MASON CITY     CLEAR     37  32  82 NW8       30.11S WCI  31
FOREST CITY *  CLEAR     37  32  81 NW5       30.10S WCI  34
IOWA FALLS *     N/A     41  34  75 NW10      30.11R
$$

IAZ007>011-017>019-026>030-037>042-050>054-066-221000-
   NORTHEAST IOWA

CITY           SKY/WX    TMP DP  RH WIND       PRES   REMARKS
CEDAR RAPIDS   CLEAR     44  36  73 N12       30.02R
CHARLES CITY * CLEAR     39  32  75 NW9       30.09R WCI  33
CLINTON *      CLEAR     37  30  75 NW9       29.99R WCI  31
DECORAH *      CLEAR     41  28  60 N10       30.04S
DUBUQUE        CLEAR     44  33  65 N16       29.97R
MONTICELLO *   CLEAR     45  32  61 NW14      30.00R
OELWEIN *      CLEAR    N/A N/A N/A N9G15     30.06R
WATERLOO       CLEAR     41  30  65 N14       30.07R
$$

IAZ064-065-067-068-078-221000-
   EAST CENTRAL IOWA

CITY           SKY/WX    TMP DP  RH WIND       PRES   REMARKS
DAVENPORT      CLEAR     44  38  79 NW10      29.98R
IOWA CITY      CLEAR     48  36  63 NW12      30.03R
MT. PLEASANT * CLEAR     48  37  66 NW13      30.02R
MUSCATINE *    CLEAR     48  37  66 NW15      30.01R
QUAD CITIES    CLEAR     47  38  71 NW7       29.97R
$$

IAZ062-063-075>077-085>089-095>099-221000-
   SOUTHEAST IOWA

CITY           SKY/WX    TMP DP  RH WIND       PRES   REMARKS
BURLINGTON     CLEAR     47  39  74 NW12      29.98R
FAIRFIELD *    CLEAR     45  36  70 NW14      30.04R
FORT MADISON * CLEAR     46  39  76 NW10      30.01R
KEOKUK *       CLEAR     48  39  71 NW8       30.00R
OSKALOOSA *      N/A     45  36  70 N17       30.06R
CENTERVILLE *  CLEAR     45  36  70 NW14      30.08R
OTTUMWA        CLEAR     44  35  70 NW15      30.06R
WASHINGTON *   CLEAR     45  37  76 N15       30.03R
$$

ABBREVIATIONS USED IN REMARKS
   TC - TEMPERATURES IN CELSIUS
  WCI - WIND CHILL INDEX
   HX - HEAT INDEX
  VSB - VISIBILITY
$$




USA.gov is the U.S. government's official web portal to all federal, state and local government web resources and services.